Flag for France Weather past 2 weeks in Poitiers, France

Now
52 °F

Low clouds.


Feels Like: 49 °F
Forecast: 50 / 54 °F
Wind: 8 mph from West

Location: Poitiers Airport

Current Time: Mar 28, 2015 at 6:13:35 AM

Latest Report: Mar 28, 2015 at 5:30 AM


Visibility: N/A

Pressure: 30.21 "Hg

Humidity: 94%

Dew point: 50 °F

Location of PoitiersLocation

Historic Weather in Poitiers — Graph

°F

Poitiers temperature yesterday

Maximum temperature yesterday: 54 °F (at 1:30 PM)
Minimum temperature yesterday: 37 °F (at 5:00 AM)
Average temperature yesterday: 45 °F

Past Weeks' High & Low Weather Summary

 TemperatureHumidityPressure
High63 °F (Mar 17, 4:30 PM)100% (Mar 14, 7:30 AM)30.30 "Hg (Mar 14, 7:30 AM)
Low30 °F (Mar 16, 5:30 AM)38% (Mar 25, 4:30 PM)29.77 "Hg (Mar 24, 2:30 PM)
Average45 °F79%30.08 "Hg
* Reported Mar 13 4:00 AM — Mar 28 4:30 AM, Poitiers, Weather by CustomWeather, © 2015

Note: Actual official high and low records may vary slightly from our data, if they occured in-between our weather recording intervals... More about our weather records

Advertising

Poitiers weather history for previous 24 hours

 ConditionsComfort  
Time TempWeatherWind HumidityBarometerVisibility
4:30 AM
Sat, Mar 28
50 °FLow clouds.7 mph100%30.21 "HgN/A
4:00 AM50 °FDrizzle. Low clouds.3 mph94%30.21 "HgN/A
3:30 AM48 °FLight rain. Fog.6 mph100%30.21 "Hg1 mi
3:00 AM48 °FDrizzle. Fog.6 mph94%30.24 "Hg3 mi
2:30 AM48 °FRain. Fog.8 mph94%30.24 "Hg1 mi
2:00 AM48 °FRain. Fog.10 mph94%30.24 "Hg1 mi
1:30 AM46 °FFog.9 mph100%30.24 "Hg2 mi
1:00 AM46 °FFog.10 mph100%30.24 "Hg2 mi
12:30 AM46 °FLow clouds.13 mph100%30.27 "Hg4 mi
12:00 AM46 °FDrizzle. Fog.12 mph93%30.27 "Hg2 mi
11:30 PM
Fri, Mar 27
46 °FDrizzle. Fog.9 mph93%30.27 "Hg2 mi
11:00 PM46 °FDrizzle. Fog.10 mph93%30.27 "Hg2 mi
10:30 PM46 °FDrizzle. Fog.9 mph93%30.27 "Hg2 mi
10:00 PM46 °FLow clouds.8 mph93%30.27 "Hg4 mi
9:30 PM46 °FPassing clouds.8 mph93%30.27 "Hg5 mi
9:00 PM46 °FLight rain. Fog.6 mph93%30.30 "Hg3 mi
8:30 PM46 °FLight rain. Overcast.7 mph93%30.30 "Hg4 mi
8:00 PM46 °FLight rain. Passing clouds.7 mph93%30.30 "Hg5 mi
7:30 PM46 °FLight rain. Mostly cloudy.6 mph93%30.30 "Hg4 mi
7:00 PM46 °FLight rain. Overcast.8 mph93%30.30 "Hg4 mi
6:30 PM46 °FLight rain. Cloudy.7 mph87%30.30 "HgN/A
6:00 PM46 °FLight rain. Mostly cloudy.8 mph87%30.27 "HgN/A
5:30 PM48 °FLight rain. Overcast.12 mph82%30.27 "HgN/A
5:00 PM50 °FLight rain. Partly sunny.9 mph76%30.27 "HgN/A
4:30 PM50 °FLight rain. Mostly cloudy.10 mph71%30.27 "HgN/A
4:00 PM52 °FLight rain. Mostly cloudy.12 mph67%30.27 "HgN/A
3:30 PM52 °FMostly cloudy.12 mph62%30.24 "HgN/A
3:00 PM54 °FMostly cloudy.8 mph58%30.27 "HgN/A
2:30 PM52 °FMostly cloudy.8 mph58%30.27 "HgN/A
2:00 PM52 °FOvercast.9 mph54%30.27 "HgN/A
1:30 PM54 °FMostly cloudy.8 mph54%30.27 "HgN/A
1:00 PM52 °FBroken clouds.8 mph54%30.27 "HgN/A
12:30 PM52 °FPartly sunny.10 mph54%30.27 "HgN/A
12:00 PM50 °FMostly cloudy.9 mph62%30.27 "HgN/A
11:30 AM50 °FPartly sunny.9 mph62%30.27 "HgN/A
11:00 AM50 °FMostly cloudy.6 mph71%30.27 "HgN/A
10:30 AM48 °FPartly sunny.7 mph76%30.27 "HgN/A
10:00 AM46 °FClear.5 mph82%30.27 "HgN/A
9:30 AM45 °FClear.6 mph81%30.24 "HgN/A
9:00 AM45 °FClear.7 mph81%30.24 "HgN/A
8:30 AM41 °FClear.5 mph93%30.24 "HgN/A
8:00 AM39 °FClear.5 mph93%30.24 "HgN/A
7:30 AM37 °FClear.5 mph93%30.24 "HgN/A
7:00 AM37 °FClear.6 mph93%30.21 "HgN/A
6:30 AM37 °FClear.6 mph93%30.18 "HgN/A
6:00 AM37 °FClear.3 mph93%30.18 "HgN/A
Weather by CustomWeather, © 2015

See weather overviewHow to use our weather pages